Oklahoma City, OK

12:52 PM CST on February 10, 2016 (GMT -0600)
Tinker Air Force Base

Weather History for KTIK - September, 2013

Change the Weather History Date:

Thursday, September 12, 2013

  Actual Average Record
Temperature  
Mean Temperature 81 °F -  
Max Temperature 94 °F 83 °F 99 °F (2011)
Min Temperature 70 °F 63 °F 52 °F (2014)
Cooling Degree Days 16    
Growing Degree Days 31 (Base 50)    
Moisture  
Dew Point 67 °F    
Average Humidity 64    
Maximum Humidity 86    
Minimum Humidity 40    
Precipitation  
Precipitation 0.00 in - - ()
Sea Level Pressure  
Sea Level Pressure 30.06 in    
Wind  
Wind Speed 6 mph (SSE)    
Max Wind Speed 17 mph    
Max Gust Speed 22 mph    
Visibility 10 miles    
Events Thunderstorm    
Averages and records for this station are not official NWS values.
T = Trace of Precipitation, MM = Missing Value Source: NWS Daily Summary

Daily Weather History Graph

Daily Weather History Graph

Search for Another Location

Airport or City:

Trip Planner

Search our weather history database for the weather conditions in past years. The results will help you decide how hot, cold, wet, or windy it might be!

Date:

Astronomy

Sep. 12, 2013 Rise Set
Actual Time 7:10 AM CDT 7:40 PM CDT
Civil Twilight 6:44 AM CDT 8:06 PM CDT
Nautical Twilight 6:14 AM CDT 8:36 PM CDT
Astronomical Twilight 5:43 AM CDT 9:06 PM CDT
Moon 2:25 PM CDT (9/12) No Moon Set
Length of Visible Light 13h 21m
Length of Day
12h 30m
Waxing Crescent, 50% of the Moon is Illuminated
Sep 12
Waxing Crescent
Sep 12
First Quarter
Sep 19
Full
Sep 26
Last Quarter
Oct 4
New

Hourly Weather History & Observations

Time (CDT) Temp. Heat Index Dew Point Humidity Pressure Visibility Wind Dir Wind Speed Gust Speed Precip Events Conditions
12:58 AM 76.8 °F - 64.8 °F 66% 30.06 in 10.0 mi SSE 5.8 mph - N/A   Clear
1:58 AM 75.9 °F - 64.9 °F 69% 30.06 in 10.0 mi SSE 6.9 mph - N/A   Clear
2:58 AM 74.7 °F - 65.1 °F 72% 30.06 in 10.0 mi SSE 4.6 mph - N/A   Clear
3:58 AM 73.4 °F - 65.3 °F 76% 30.06 in 10.0 mi SSE 5.8 mph - N/A   Partly Cloudy
4:58 AM 72.5 °F - 65.1 °F 78% 30.06 in 10.0 mi South 5.8 mph - N/A   Clear
5:58 AM 70.9 °F - 65.7 °F 83% 30.07 in 10.0 mi South 8.1 mph - N/A   Clear
6:58 AM 71.2 °F - 65.1 °F 81% 30.08 in 10.0 mi South 6.9 mph - N/A   Clear
7:58 AM 72.5 °F - 65.1 °F 78% 30.09 in 10.0 mi SSW 4.6 mph - N/A   Clear
8:58 AM 78.4 °F - 66.7 °F 67% 30.09 in 10.0 mi SW 5.8 mph - N/A   Clear
9:58 AM 84.0 °F 86.5 °F 66.9 °F 56% 30.10 in 10.0 mi SW 6.9 mph - N/A   Clear
10:58 AM 86.9 °F 89.6 °F 66.6 °F 51% 30.11 in 10.0 mi WSW 4.6 mph - N/A   Clear
11:58 AM 89.2 °F 91.3 °F 65.7 °F 45% 30.10 in 10.0 mi SSW 5.8 mph - N/A   Clear
12:58 PM 91.2 °F 92.5 °F 64.0 °F 40% 30.08 in 10.0 mi ENE 4.6 mph - N/A   Partly Cloudy
1:58 PM 92.1 °F 94.0 °F 64.6 °F 40% 30.06 in 10.0 mi North 5.8 mph - N/A   Partly Cloudy
2:58 PM 91.9 °F 94.5 °F 65.7 °F 42% 30.04 in 10.0 mi ENE 4.6 mph - N/A   Partly Cloudy
3:58 PM 90.9 °F 94.0 °F 67.1 °F 45% 30.01 in 10.0 mi ENE 9.2 mph - N/A   Partly Cloudy
4:58 PM 91.2 °F 93.7 °F 66.0 °F 43% 30.00 in 10.0 mi NE 6.9 mph - N/A   Partly Cloudy
5:58 PM 91.2 °F 94.1 °F 66.2 °F 44% 29.99 in 10.0 mi East 8.1 mph - N/A   Partly Cloudy
6:58 PM 86.0 °F 89.1 °F 67.5 °F 54% 30.02 in 10.0 mi South 10.4 mph - N/A   Mostly Cloudy
7:08 PM 82.4 °F 85.4 °F 68.0 °F 62% 30.03 in 10.0 mi SSW 17.3 mph 21.9 mph N/A   Light Drizzle
7:27 PM 80.6 °F 83.2 °F 68.0 °F 65% 30.06 in 10.0 mi Variable 5.8 mph - N/A Thunderstorm Overcast
7:58 PM 78.3 °F - 69.3 °F 74% 30.06 in 10.0 mi Variable 4.6 mph - 0.00 in   Mostly Cloudy
8:58 PM 76.1 °F - 70.9 °F 84% 30.06 in 10.0 mi SSW 2.3 mph - N/A   Partly Cloudy
9:58 PM 75.7 °F - 71.2 °F 86% 30.05 in 10.0 mi NNE 5.8 mph - N/A   Scattered Clouds
10:58 PM 76.6 °F - 68.9 °F 77% 30.04 in 10.0 mi NE 5.8 mph - N/A   Clear
11:58 PM 75.4 °F - 67.8 °F 77% 30.05 in 10.0 mi NE 4.6 mph - N/A   Clear